Погода в Костроме

Погода в Костроме : погода сейчас, прогноз погоды и архив. Всё, что Вы хотите узнать о погоде в Костроме!

Хотите узнать прогноз погоды в Костроме? Тогда Вам сюда: Погода в Костроме

Поиск расширенной информации на нашем сайте:

Другие новости

Новости СМИ2

Главная страница сайта

Новости сайта

03.07.2017

Напоминаем, что на нашем специализированном сайте Метеоцентр.Азия вы можете получить высокодетализированные автоматические прогнозы погоды по пунктам России, СНГ и мира в авиационном формате (включающие направление и скорость ветра, видимость, явления погоды, количество и форму облачности, нижнюю и верхнюю границу облачности).


Погода в Костроме - сегодня

Время (UTC), дата Ветер
(°,м/с) 
Видим.   Явления Облачность Т
(°С)
Тd
(°С)
f(%) Тe
(°С)
Pmin
(гПа)
dP
(гПа)
Po
(мм)
O2
(г/м3)
Тmin Tmax R s Состояние
почвы
21 13.02.18 170 (Ю) 50000 м    ясно 
-12.8 -13.9 91 -13  1031.9  0.9  761  323           
00 14.02.18 190 (Ю) 50000 м    ясно 
-16.2 -17.7 88 -19  1032.6  0.4  762  328           
03 14.02.18 180 (Ю) 45000 м    3/0 верхняя 
[Cs]
-14.2 -15.7 88 -14  1033.2  0.7  762  325  -16.9      56  неравномерный
сухой снег
100% 
06 14.02.18 180 (Ю) 30000 м    3/0 средняя 
[Ac trans]
-15.9 -17.7 86 -16  1034.4  1.1  763  328           
09 14.02.18 150 (ЮВ) 18000 м    ясно 
-11.7 -13.4 87 -12  1035.2  1.1  764  323           
12 14.02.18 150 (ЮВ) 30000 м    ясно 
-8.5 -10.9 83 -10  1035.1  0.2  764  319           
15 14.02.18 тихо ()   30000 м    ясно 
-10.7 -12.3 88 -11  1035.6  0.4  764  322    -8.3       
18 14.02.18 140 (ЮВ) 50000 м    ясно 
-12 -13.5 89 -14  1036.1  0.3  764  323           
21 14.02.18 140 (ЮВ) 50000 м    ясно 
-12.6 -13.9 90 -13  1036.7  0.5  765  324           
00 15.02.18 190 (Ю) 50000 м    ясно 
-14 -15.5 88 -14  1037.3  0.5  765  326           
03 15.02.18 тихо ()   50000 м    ясно 
-15.8 -17.6 86 -16  1037.6  0.1  765  329  -17.4      54  неравномерный
сухой снег
100% 
06 15.02.18 190 (Ю) 30000 м    1/0 верхняя 
[Ci fib]
-15.9 -17.8 85 -16  1038.4  0.8  766  329           
09 15.02.18 190 (Ю) 30000 м    1/0 верхняя 
[Ci fib]
-12.8 -14.9 84 -15  1039.1  0.9  767  325           
12 15.02.18 130 (ЮВ) 30000 м    1/0 верхняя 
[Ci fib]
-8.7 -12.9 72 -10  1038.4  -0.4  766  320           
18 15.02.18 140 (ЮВ) 50000 м    ясно 
-12.6 -14.6 85 -15  1037.7  -0.6  766  325           
21 15.02.18 180 (Ю) 50000 м    ясно 
-14 -15.5 88 -16  1037.4  -0.3  765  326           
03 16.02.18 150 (ЮВ) 50000 м  слаб. снег  10/0 средняя 
[Ac As]
-11.8 -13.6 86 -16  1035.9  -1  764  323  -14.4    0.0  55  неравномерный
сухой снег
100% 
06 16.02.18 170 (Ю) 30000 м  слаб. снег  10/0 средняя 
[Ac As]
-10.6 -12.3 87 -15  1035.4  -0.4  764  321           
09 16.02.18 160 (Ю) 30000 м  слаб. снег  10/0 средняя 
[Ac As]
-8.9 -10.6 87 -13  1034.5  -0.7  763  319           
18 16.02.18 160 (Ю) 50000 м  слаб. снег  10/0 средняя 
[Ac As]
-6.1 -7.9 87 -9  1032.5  -0.6  762  315           
21 16.02.18 170 (Ю) 50000 м  слаб. снег  10/0 средняя 
[Ac As]
-5.2 -6.7 89 -8  1031.5  -0.9  761  313           
03 17.02.18 140 (ЮВ) 50000 м    10/0 средняя 
[Ac As]
-7.9 -9.2 90 -11  1030.7  -0.8  761  317  -7.9    0.0  55  неравномерный
сухой снег
100% 
09 17.02.18 160 (Ю) 30000 м  {снег}  10/0 средняя 
[Ac As]
-4.4 -7.4 80 -8  1028.6  -0.9  759  312           
18 17.02.18 160 (Ю) 50000 м  слаб. снег  10/0 средняя 
[Ac As]
-4.9 -6.9 86 -8  1025.9  -0.5  757  311           
21 17.02.18 160 (Ю) 50000 м  {снег}  10/0 средняя 
[Ac As]
-5.1 -7 86 -8  1025.3  -0.6  757  311           
Время (UTC), дата Ветер
(°,м/с) 
Видим.   Явления Облачность Т
(°С)
Тd
(°С)
f(%) Тe
(°С)
Pmin
(гПа)
dP
(гПа)
Po
(мм)
O2
(г/м3)
Тmin Tmax R s Состояние
почвы

Для получения пояснительной информации подведите курсор к названию столбца.

ПОГОДА в Костроме - архив

Всё, что Вы хотите узнать о погоде в Костроме - удобно и подробно!

Выберите нужную дату (начиная с 1 января 2015* года) и нажмите кнопку "Найти".
Будут отображены архивные сводки погоды по пункту Кострома, начиная с указанной даты.


Отображать данные в формате CSV (для использования в таблицах Excel)


Внимание! Наш архив погоды предназначен исключительно для личного некоммерческого использования в познавательных целях. Если Вам необходимы официальные справки о состоянии погоды (для производственных, юридических, коммерческих и т.п. целей), обращайтесь в органы Росгидромета.

*Примечание: данная дата относится к архиву по метеостанциям СССР (Россия, СНГ, Балтия).
Архив по метеостанциям Зарубежной Европы и Азии (кроме Китая) хранится 10 дней, по другим регионам земного шара (Китай, Африка, Америка, Австралия, Океания) - 1 день.

Кострома - район местоположения метеостанции


Название, широта, долгота, высота метеостанции:
Кострома 57.7°ш. 40.8°д. 126 м над ур. моря [Российская Федерация]

Дополнительная информация

В oтличие oт бoльшинства пoгoдных сайтoв мы публикуем пoдрoбную метеoинфoрмацию в детальнoм прoфессиoнальнoм фoрмате.

Характеристики температуры и влажнoсти вoздуха измеряются на высoте 2 м в тени вдали oт зданий и деревьев.
Скoрoсть ветра измеряется на высoте 10 м (на урoвне рoста челoвека скoрoсть ветра ниже в 1.5-2 раза). Если метеoстанция нахoдится в гoрoде или в лесу, тo скoрoсть ветра занижена на 2-4 м/с пo сравнению с oткрытым местoм. Скoрoсть ветра над акватoриями крупных рек и oзёр, а также на вершинах хoлмoв на 2-5 м/с выше, чем в oбычных услoвиях.
Атмoсфернoе давление в разных тoчках местнoсти мoжет значительнo oтличаться oт давления на метеoстанции, в зависимoсти oт услoвий рельефа (при пoдъёме на 10 м давление пoнижается примернo на 1 мм рт.ст.).